Location: Unspecified
(33.6682°S, 0.0000°E)
Time: 11:31:25
(UTC+00:00)

SR - Visible Passes

Search period start: 14 October 2019 00:00
Search period end: 24 October 2019 00:00
Orbit: 575 x 881 km, 66.7° (Epoch: 14 October)

Date Brightness Start Highest point End Pass type
(mag) Time Alt. Az. Time Alt. Az. Time Alt. Az.
14 Oct ? 19:30:09 10° SSE 19:32:10 13° SE 19:32:17 13° SE visible
14 Oct ? 21:10:20 10° SW 21:11:42 20° SW 21:11:42 20° SW visible
15 Oct ? 20:20:38 10° SSW 20:23:41 43° S 20:23:41 43° S visible
16 Oct ? 19:31:31 10° S 19:35:08 26° ESE 19:35:44 25° ESE visible
16 Oct ? 21:13:43 10° WSW 21:15:10 16° WSW 21:15:10 16° WSW visible
17 Oct ? 18:43:29 10° SSE 18:45:11 12° SE 18:46:53 10° ESE visible
17 Oct ? 20:23:21 10° SW 20:27:16 52° W 20:27:16 52° W visible
18 Oct ? 19:33:43 10° SSW 19:37:56 58° ESE 19:39:27 36° NE visible
19 Oct ? 18:44:39 10° S 18:48:11 24° ESE 18:51:42 10° ENE visible
19 Oct ? 20:26:40 10° WSW 20:30:02 23° WNW 20:31:10 20° NW visible
20 Oct ? 19:36:24 10° SW 19:40:35 58° WNW 19:43:32 19° N visible
21 Oct ? 18:46:48 10° SSW 18:50:58 53° ESE 18:55:11 10° NE visible
22 Oct ? 19:39:37 10° SW 19:43:07 25° WNW 19:46:39 10° NNW visible
23 Oct ? 18:49:26 10° SSW 18:53:38 64° WNW 18:57:56 10° NNE visible
